Location: Benalto
(52.3088°N, 114.2787°W)
Time: 12:46:21
(UTC+00:00)

N. Korean satellite - Pass Details

Date: 08 December 2021
Orbit: 447 x 490 km, 97.3° (Epoch: 27 January)

Event Time Altitude Azimuth Distance (km) Brightness Sun altitude
Rises 12:17:33 0° 23° (NNE) 2,467 10.4 -28.6°
Reaches altitude 10° 12:19:51 10° 37° (NE) 1,587 9.6 -28.3°
Maximum altitude 12:22:43 25° 95° (E) 952 8.7 -27.9°
Drops below altitude 10° 12:25:33 10° 152° (SSE) 1,575 9.5 -27.4°
Sets 12:27:49 0° 166° (SSE) 2,444 10.3 -27.1°
